Location: Leeds
(37.2390°N, 113.3580°W)
Time: 05:59:51
(UTC-06:00)

SL-08 RB Rocket - Visible Passes

Search period start: 29 August 2014 00:00
Search period end: 08 September 2014 00:00
Orbit: 651 x 688 km, 98.1° (Epoch: 25 August)

Date Brightness Start Highest point End Pass type
(mag) Time Alt. Az. Time Alt. Az. Time Alt. Az.
29 Aug 6.6 00:10:23 12° NW 00:10:23 12° NW 00:10:54 10° NW visible
29 Aug 5.5 23:05:12 27° N 23:05:12 27° N 23:07:16 10° N visible
30 Aug 5.9 22:00:02 13° NE 22:00:02 13° NE 22:01:12 10° NNE visible
30 Aug 6.1 23:38:14 20° NNW 23:38:14 20° NNW 23:39:42 10° NNW visible
31 Aug 5.6 22:33:04 21° NNE 22:33:04 21° NNE 22:34:55 10° N visible
01 Sep 6.8 00:11:16 11° NW 00:11:16 11° NW 00:11:28 10° NW visible
01 Sep 5.7 23:06:06 23° N 23:06:06 23° N 23:07:51 10° N visible
02 Sep 6.0 22:00:56 13° NE 22:00:56 13° NE 22:01:49 10° NNE visible
02 Sep 6.3 23:39:08 17° NNW 23:39:08 17° NNW 23:40:16 10° NNW visible
03 Sep 5.7 22:33:58 19° NNE 22:33:58 19° NNE 22:35:31 10° N visible
04 Sep 6.0 23:07:00 20° N 23:07:00 20° N 23:08:26 10° N visible
05 Sep 6.1 22:01:50 12° NE 22:01:50 12° NE 22:02:26 10° NNE visible
05 Sep 6.5 23:40:02 15° NNW 23:40:02 15° NNW 23:40:50 10° NNW visible
06 Sep 5.9 22:34:52 17° NNE 22:34:52 17° NNE 22:36:06 10° N visible
07 Sep 6.2 23:07:54 17° N 23:07:54 17° N 23:09:00 10° N visible
